When you browse on this site, cookies collect data to enhance your experience and personalize the content and advertising you see.
Visit our Privacy Policy to learn more. By continuing to use the site, you agree to this use of cookies and data.
  • In Czech Republic
  • List of Countries
  • For 7 days
  • Water Temperature
  • Weather Map
  • Weather Widgets
  • user-avatar
    Login

    Hourly Weather Brisbane

    Today, 20 January, Monday

    Time Temperature Precipitation Wind Pressure Humidity
    00:00 +26°C° 0.4 mm 2 mps 752 mmHg 83%
    01:00 +25°C° 0.4 mm 2 mps 752 mmHg 84%
    02:00 +25°C° 0 mm 2 mps 752 mmHg 85%
    03:00 +25°C° 0 mm 2 mps 753 mmHg 86%
    04:00 +25°C° 0 mm 2 mps 753 mmHg 87%
    05:00 +26°C° 0 mm 2 mps 753 mmHg 86%
    06:00 +26°C° 0 mm 2 mps 754 mmHg 84%
    07:00 +27°C° 0 mm 2 mps 754 mmHg 82%
    08:00 +29°C° 0 mm 2 mps 754 mmHg 72%
    09:00 +33°C° 0 mm 3 mps 754 mmHg 62%
    10:00 +35°C° 0 mm 3 mps 754 mmHg 52%
    11:00 +36°C° 0 mm 3 mps 754 mmHg 48%
    12:00 +37°C° 0 mm 3 mps 753 mmHg 44%
    13:00 +38°C° 0 mm 4 mps 753 mmHg 40%
    14:00 +37°C° 0.3 mm 4 mps 753 mmHg 47%
    15:00 +35°C° 0.3 mm 4 mps 752 mmHg 54%
    16:00 +34°C° 0.3 mm 4 mps 752 mmHg 61%
    17:00 +33°C° 0.2 mm 4 mps 752 mmHg 65%
    18:00 +30°C° 0.2 mm 4 mps 752 mmHg 69%
    19:00 +29°C° 0.2 mm 4 mps 753 mmHg 73%
    20:00 +29°C° 0.1 mm 4 mps 753 mmHg 74%
    21:00 +29°C° 0.1 mm 4 mps 754 mmHg 75%
    22:00 +29°C° 0.1 mm 4 mps 754 mmHg 76%
    23:00 +28°C° 0 mm 3 mps 754 mmHg 78%

    Tomorrow, 21 January, Tuesday

    Time Temperature Precipitation Wind Pressure Humidity
    00:00 +28°C° 0 mm 2 mps 754 mmHg 81%
    01:00 +27°C° 0 mm 2 mps 754 mmHg 83%
    02:00 +27°C° 0 mm 2 mps 754 mmHg 83%
    03:00 +27°C° 0 mm 2 mps 754 mmHg 84%
    04:00 +26°C° 0 mm 2 mps 754 mmHg 85%
    05:00 +27°C° 0 mm 2 mps 755 mmHg 81%
    06:00 +28°C° 0 mm 2 mps 755 mmHg 77%
    07:00 +29°C° 0 mm 1 mps 756 mmHg 74%
    08:00 +31°C° 0 mm 2 mps 756 mmHg 65%
    09:00 +34°C° 0 mm 2 mps 756 mmHg 56%
    10:00 +36°C° 0 mm 2 mps 756 mmHg 48%
    11:00 +37°C° 0 mm 3 mps 755 mmHg 44%
    12:00 +39°C° 0 mm 3 mps 755 mmHg 40%
    13:00 +40°C° 0 mm 3 mps 754 mmHg 37%
    14:00 +37°C° 2.2 mm 4 mps 754 mmHg 48%
    15:00 +34°C° 2.2 mm 4 mps 753 mmHg 59%
    16:00 +30°C° 2.2 mm 4 mps 753 mmHg 71%
    17:00 +29°C° 0.5 mm 5 mps 754 mmHg 71%
    18:00 +29°C° 0.5 mm 5 mps 755 mmHg 71%
    19:00 +28°C° 0.5 mm 5 mps 755 mmHg 72%
    20:00 +28°C° 0 mm 4 mps 756 mmHg 74%
    21:00 +27°C° 0 mm 3 mps 756 mmHg 76%
    22:00 +27°C° 0 mm 2 mps 757 mmHg 79%
    23:00 +26°C° 0 mm 1 mps 756 mmHg 80%

    Day after tomorrow, 22 January, Wednesday

    Time Temperature Precipitation Wind Pressure Humidity
    00:00 +26°C° 0 mm 1 mps 756 mmHg 81%
    01:00 +24°C° 0 mm 0 mps 756 mmHg 83%
    02:00 +26°C° 0 mm 1 mps 756 mmHg 84%
    03:00 +25°C° 0 mm 1 mps 756 mmHg 84%
    04:00 +25°C° 0 mm 1 mps 756 mmHg 85%
    05:00 +26°C° 0 mm 1 mps 757 mmHg 82%
    06:00 +27°C° 0 mm 1 mps 757 mmHg 78%
    07:00 +28°C° 0 mm 1 mps 758 mmHg 74%
    08:00 +30°C° 0 mm 1 mps 758 mmHg 65%
    09:00 +33°C° 0 mm 1 mps 758 mmHg 56%
    10:00 +35°C° 0 mm 1 mps 758 mmHg 47%
    11:00 +37°C° 0 mm 2 mps 757 mmHg 46%
    12:00 +37°C° 0 mm 3 mps 757 mmHg 44%
    13:00 +38°C° 0 mm 3 mps 756 mmHg 43%
    14:00 +37°C° 0 mm 4 mps 756 mmHg 48%
    15:00 +36°C° 0 mm 4 mps 755 mmHg 53%
    16:00 +34°C° 0 mm 5 mps 755 mmHg 58%
    17:00 +33°C° 0 mm 5 mps 755 mmHg 63%
    18:00 +32°C° 0 mm 4 mps 756 mmHg 69%
    19:00 +29°C° 0 mm 4 mps 757 mmHg 74%
    20:00 +29°C° 0 mm 4 mps 757 mmHg 78%
    21:00 +28°C° 0 mm 4 mps 757 mmHg 82%
    22:00 +27°C° 0 mm 4 mps 758 mmHg 86%
    23:00 +27°C° 0 mm 4 mps 758 mmHg 87%

    23 January, Thursday

    Time Temperature Precipitation Wind Pressure Humidity
    00:00 +27°C° 0 mm 3 mps 757 mmHg 88%
    01:00 +27°C° 0 mm 3 mps 757 mmHg 89%
    02:00 +27°C° 0 mm 3 mps 757 mmHg 88%
    03:00 +27°C° 0 mm 2 mps 757 mmHg 88%
    04:00 +27°C° 0 mm 2 mps 757 mmHg 87%
    05:00 +27°C° 0 mm 2 mps 757 mmHg 84%
    06:00 +28°C° 0 mm 2 mps 758 mmHg 81%
    07:00 +29°C° 0 mm 2 mps 758 mmHg 78%
    08:00 +30°C° 0 mm 3 mps 758 mmHg 70%
    09:00 +33°C° 0 mm 3 mps 758 mmHg 63%
    10:00 +35°C° 0 mm 3 mps 758 mmHg 55%
    11:00 +35°C° 0 mm 4 mps 757 mmHg 53%
    12:00 +36°C° 0 mm 4 mps 757 mmHg 51%
    13:00 +37°C° 0 mm 4 mps 756 mmHg 49%
    14:00 +35°C° 0.1 mm 5 mps 756 mmHg 54%
    15:00 +34°C° 0.1 mm 5 mps 755 mmHg 59%
    16:00 +33°C° 0.1 mm 5 mps 755 mmHg 64%
    17:00 +32°C° 0.3 mm 5 mps 755 mmHg 69%
    18:00 +29°C° 0.3 mm 5 mps 756 mmHg 75%
    19:00 +28°C° 0.3 mm 5 mps 756 mmHg 80%
    20:00 +28°C° 0.3 mm 4 mps 756 mmHg 81%
    21:00 +27°C° 0.3 mm 4 mps 757 mmHg 83%
    22:00 +27°C° 0.3 mm 4 mps 757 mmHg 85%
    23:00 +27°C° 0 mm 3 mps 757 mmHg 85%

    24 January, Friday

    Time Temperature Precipitation Wind Pressure Humidity
    00:00 +26°C° 0 mm 3 mps 757 mmHg 86%
    01:00 +26°C° 0 mm 3 mps 757 mmHg 86%
    02:00 +26°C° 0 mm 3 mps 757 mmHg 86%
    03:00 +26°C° 0 mm 2 mps 757 mmHg 87%
    04:00 +26°C° 0 mm 2 mps 757 mmHg 87%
    05:00 +26°C° 0 mm 2 mps 757 mmHg 84%
    06:00 +27°C° 0 mm 2 mps 758 mmHg 82%
    07:00 +27°C° 0 mm 2 mps 758 mmHg 79%
    08:00 +29°C° 0 mm 2 mps 758 mmHg 71%
    09:00 +31°C° 0 mm 2 mps 758 mmHg 63%
    10:00 +34°C° 0 mm 3 mps 758 mmHg 54%
    11:00 +35°C° 0 mm 3 mps 757 mmHg 51%
    12:00 +36°C° 0 mm 3 mps 757 mmHg 47%
    13:00 +38°C° 0 mm 4 mps 756 mmHg 43%
    14:00 +36°C° 0 mm 4 mps 756 mmHg 48%
    15:00 +35°C° 0 mm 5 mps 755 mmHg 52%
    16:00 +34°C° 0 mm 5 mps 755 mmHg 56%
    17:00 +32°C° 0 mm 5 mps 755 mmHg 62%
    18:00 +30°C° 0 mm 5 mps 755 mmHg 67%
    19:00 +28°C° 0 mm 5 mps 755 mmHg 72%
    20:00 +28°C° 0.3 mm 4 mps 756 mmHg 75%
    21:00 +27°C° 0.3 mm 3 mps 757 mmHg 77%
    22:00 +27°C° 0.3 mm 3 mps 757 mmHg 80%
    23:00 +27°C° 0.5 mm 2 mps 757 mmHg 81%

    25 January, Saturday

    Time Temperature Precipitation Wind Pressure Humidity
    00:00 +26°C° 0.5 mm 2 mps 757 mmHg 82%
    01:00 +26°C° 0.5 mm 2 mps 757 mmHg 83%
    02:00 +26°C° 0.1 mm 2 mps 757 mmHg 84%
    03:00 +26°C° 0.1 mm 2 mps 756 mmHg 84%
    04:00 +26°C° 0.1 mm 2 mps 756 mmHg 85%
    05:00 +26°C° 0 mm 2 mps 756 mmHg 82%
    06:00 +27°C° 0 mm 3 mps 757 mmHg 80%
    07:00 +27°C° 0 mm 3 mps 758 mmHg 77%
    08:00 +30°C° 0 mm 3 mps 758 mmHg 69%
    09:00 +32°C° 0 mm 2 mps 758 mmHg 60%
    10:00 +35°C° 0 mm 2 mps 758 mmHg 52%
    11:00 +36°C° 0 mm 3 mps 757 mmHg 51%
    12:00 +36°C° 0 mm 4 mps 757 mmHg 49%
    13:00 +36°C° 0 mm 4 mps 757 mmHg 48%
    14:00 +35°C° 0 mm 5 mps 756 mmHg 52%
    15:00 +35°C° 0 mm 5 mps 756 mmHg 55%
    16:00 +34°C° 0 mm 5 mps 756 mmHg 58%
    17:00 +32°C° 1.9 mm 4 mps 756 mmHg 66%
    18:00 +29°C° 1.9 mm 3 mps 757 mmHg 74%
    19:00 +27°C° 1.9 mm 3 mps 757 mmHg 82%
    20:00 +27°C° 0.1 mm 3 mps 758 mmHg 83%
    21:00 +27°C° 0.1 mm 3 mps 758 mmHg 83%
    22:00 +27°C° 0.1 mm 3 mps 759 mmHg 84%
    23:00 +27°C° 0 mm 3 mps 758 mmHg 85%
    Show more